Weather History for Moline, IL

Change the Weather History Date:

Sunday, June 8, 2014

  Actual Average Record
Temperature  
Mean Temperature 66 °F 69 °F  
Max Temperature 74 °F 80 °F 98 °F (1963)
Min Temperature 57 °F 59 °F 39 °F (1913)
Degree Days  
Heating Degree Days 0 1  
Month to date heating degree days 1 11  
Since 1 June heating degree days 1 11  
Since 1 July heating degree days 7314 6195  
Cooling Degree Days 1 5  
Month to date cooling degree days 43 37  
Year to date cooling degree days 148 113  
Since 1 June cooling degree days 43 37  
Growing Degree Days 16 (Base 50)    
Moisture  
Dew Point 58 °F    
Average Humidity 76    
Maximum Humidity 90    
Minimum Humidity 61    
Precipitation  
Precipitation 0.00 in 0.15 in 2.55 in (1952)
Month to date precipitation 1.15 1.20  
Year to date precipitation 12.71 15.06  
Snow  
Snow 0.00 in 0.00 in - ()
Month to date snowfall 0.0 0.0  
Since 1 June snowfall 0.0 0.0  
Since 1 July snowfall 65.1 31.6  
Snow Depth 0.00 in    
Sea Level Pressure  
Sea Level Pressure 30.03 in    
Wind  
Wind Speed 5 mph (NNE)    
Max Wind Speed 10 mph    
Max Gust Speed 15 mph    
Visibility 10 miles    
Events      
T = Trace of Precipitation, MM = Missing Value Source: NWS Daily Summary

Daily Weather History Graph

Daily Weather History Graph

Search for Another Location

Airport:

Trip Planner

Search our weather history database for the weather conditions in past years. The results will help you decide how hot, cold, wet, or windy it might be!

Date:

Astronomy

Jun. 08, 2014 Rise Set
Actual Time 5:28 AM CDT 8:34 PM CDT
Civil Twilight 4:54 AM CDT 9:07 PM CDT
Nautical Twilight 4:11 AM CDT 9:50 PM CDT
Astronomical Twilight 3:20 AM CDT 10:41 PM CDT
Moon 3:49 PM CDT (6/8) 2:24 AM CDT (6/8)
Length of Visible Light 16h 12m
Length of Day
15h 05m
Waxing Gibbous, 77% of the Moon is Illuminated
Jun 8
Waxing Gibbous
Jun 12
Full
Jun 19
Last Quarter
Jun 27
New
Jul 5
First Quarter

Hourly Weather History & Observations

Time (CDT) Temp. Dew Point Humidity Pressure Visibility Wind Dir Wind Speed Gust Speed Precip Events Conditions
12:52 AM 62.1 °F 59.0 °F 90% - 10.0 mi NNW 4.6 mph - N/A   Clear
1:52 AM 61.0 °F 57.9 °F 90% - 10.0 mi NW 3.5 mph - N/A   Clear
2:52 AM 62.1 °F 57.9 °F 86% - 10.0 mi NW 4.6 mph - N/A   Partly Cloudy
3:52 AM 61.0 °F 57.0 °F 87% - 10.0 mi NNE 5.8 mph - N/A   Scattered Clouds
4:09 AM 60.8 °F 57.2 °F 88% - 10.0 mi North 3.5 mph - N/A   Mostly Cloudy
4:52 AM 62.1 °F 57.9 °F 86% - 10.0 mi NNE 6.9 mph - N/A   Mostly Cloudy
5:22 AM 62.6 °F 57.2 °F 82% 29.94 in 10.0 mi North 4.6 mph - N/A   Overcast
5:52 AM 63.0 °F 57.9 °F 84% 29.98 in 10.0 mi NE 4.6 mph - N/A   Overcast
6:52 AM 63.0 °F 57.0 °F 81% 29.99 in 10.0 mi North 4.6 mph - N/A   Mostly Cloudy
7:52 AM 64.0 °F 57.0 °F 78% 30.02 in 10.0 mi North 5.8 mph - N/A   Partly Cloudy
8:05 AM 62.6 °F 57.2 °F 82% 30.01 in 10.0 mi NNW 8.1 mph - N/A   Mostly Cloudy
8:52 AM 64.0 °F 57.9 °F 80% 30.03 in 10.0 mi NNW 8.1 mph - N/A   Mostly Cloudy
9:01 AM 64.4 °F 57.2 °F 77% 30.03 in 10.0 mi North 4.6 mph - N/A   Overcast
9:52 AM 66.0 °F 57.9 °F 75% 30.06 in 10.0 mi NNW 4.6 mph - N/A   Overcast
10:52 AM 66.9 °F 57.9 °F 73% 30.05 in 10.0 mi North 4.6 mph - N/A   Overcast
11:52 AM 66.9 °F 57.9 °F 73% 30.05 in 10.0 mi NNE 5.8 mph - N/A   Overcast
12:27 PM 68.0 °F 59.0 °F 73% 30.03 in 10.0 mi NNE 5.8 mph - N/A   Overcast
12:52 PM 68.0 °F 57.9 °F 70% 30.05 in 10.0 mi NNE 5.8 mph - N/A   Overcast
1:52 PM 69.1 °F 57.9 °F 68% 30.07 in 10.0 mi NNE 4.6 mph - N/A   Overcast
2:52 PM 71.6 °F 57.2 °F 60% 30.03 in 10.0 mi NW 8.1 mph - N/A   Overcast
3:02 PM 73.4 °F 59.0 °F 61% 30.02 in 10.0 mi Variable 4.6 mph - N/A   Overcast
3:48 PM 71.6 °F 57.2 °F 60% 30.02 in 10.0 mi NNE 6.9 mph - N/A   Overcast
3:52 PM 71.1 °F 57.9 °F 63% 30.04 in 10.0 mi North 5.8 mph - N/A   Overcast
4:52 PM 70.0 °F 57.9 °F 65% 30.04 in 10.0 mi NNE 5.8 mph - N/A   Overcast
5:00 PM 69.8 °F 57.2 °F 64% - 10.0 mi North 5.8 mph - N/A   Overcast
5:28 PM 69.8 °F 57.2 °F 64% 30.01 in 10.0 mi NNE 5.8 mph - N/A   Overcast
5:52 PM 69.1 °F 57.9 °F 68% 30.03 in 10.0 mi NNE 5.8 mph - N/A   Overcast
6:52 PM 69.1 °F 57.9 °F 68% 30.03 in 10.0 mi NE 5.8 mph - N/A   Overcast
7:52 PM 66.9 °F 57.9 °F 73% 30.03 in 10.0 mi ENE 6.9 mph - N/A   Partly Cloudy
8:52 PM 66.0 °F 57.0 °F 73% 30.04 in 10.0 mi NE 3.5 mph - N/A   Clear
9:52 PM 62.1 °F 57.0 °F 84% 30.05 in 10.0 mi East 4.6 mph - N/A   Clear
10:52 PM 60.1 °F 57.0 °F 90% 30.05 in 10.0 mi Calm Calm - N/A   Clear
11:52 PM 60.1 °F 55.9 °F 86% - 10.0 mi East 4.6 mph - N/A   Clear